GFSMW_850_spd_096.txt.gz
Wind_Speed
29 26 28 25 23 23 21 22 18 18 16 18 14 12 10 6 6 6 5 5 3 3 2 3 4 4 4 2 3 3 4 4 5 6 3 6 7 6 4 4 5 5 6
31 30 30 29 27 25 24 23 20 17 16 14 11 11 11 10 7 7 5 3 5 4 2 4 2 2 2 3 2 2 4 6 8 7 7 6 5 5 4 2 2 4 6
34 34 35 31 30 28 26 25 22 19 16 13 11 10 11 10 10 8 6 4 4 4 3 5 4 3 2 2 2 3 3 6 6 6 6 4 4 7 6 3 2 1 6
38 37 38 35 34 30 26 24 24 23 19 15 11 10 11 10 9 8 6 6 4 4 4 4 5 4 2 3 3 1 2 6 6 6 6 6 8 6 4 4 4 2 4
37 38 40 38 35 31 27 25 26 26 22 18 14 14 11 9 7 5 6 6 5 5 4 3 5 5 5 5 4 3 1 2 5 6 5 6 8 9 8 6 5 3 1
39 38 40 39 37 33 29 27 28 25 23 21 19 18 14 9 9 9 6 5 4 7 6 5 4 8 6 7 7 5 5 1 0 2 5 6 8 9 9 9 7 5 4
37 38 39 38 38 36 33 29 29 26 25 21 21 21 14 12 8 8 6 8 6 5 5 6 4 5 7 8 9 10 7 6 4 3 3 3 5 5 7 8 7 6 8
36 38 39 37 35 36 35 31 30 28 27 22 20 22 20 15 11 9 6 5 8 4 4 4 3 5 6 7 6 8 10 10 10 8 7 6 5 5 5 6 7 6 4
36 40 41 39 27 30 34 35 32 29 26 24 21 20 22 19 14 11 8 7 6 8 5 6 6 6 5 7 10 10 10 11 10 10 10 10 9 8 7 6 7 6 6
34 35 39 39 36 36 30 33 32 31 25 24 22 20 20 20 16 14 11 9 9 8 9 7 9 9 10 9 9 11 10 10 9 9 10 10 11 11 10 10 9 8 9
34 35 41 35 31 35 32 34 31 30 27 24 22 21 20 21 19 16 13 11 9 9 9 7 7 7 7 7 9 10 11 10 8 8 9 9 10 11 10 10 11 11 11
31 32 31 30 34 35 28 25 28 29 26 25 22 19 19 21 21 18 14 15 15 15 13 12 11 9 7 8 6 7 9 9 9 8 9 7 9 9 10 10 10 11 12
23 27 29 29 27 30 29 18 15 20 23 20 21 18 18 18 21 22 20 18 17 15 16 16 14 10 8 7 9 10 9 10 10 10 10 9 10 7 7 9 9 9 10
17 21 26 28 29 28 25 28 26 13 11 9 16 15 14 14 15 17 17 16 15 14 13 15 14 14 13 13 13 14 14 13 14 13 13 11 10 11 10 11 11 12 12
16 19 19 18 23 25 25 23 22 23 22 20 15 9 8 7 11 13 14 16 16 16 15 16 17 16 16 15 14 15 16 16 15 16 14 13 12 12 12 12 13 14 16
16 17 17 18 20 22 24 25 23 19 22 21 20 17 11 6 4 2 8 13 15 16 17 17 17 17 18 17 15 15 15 15 16 16 15 15 15 14 14 15 15 15 17
18 17 16 14 14 14 17 18 18 18 15 17 17 17 19 20 15 14 9 7 6 10 12 16 17 15 18 19 19 19 17 17 17 18 18 17 17 18 19 19 18 19 19
19 20 19 19 19 18 18 18 16 13 11 11 13 14 15 19 19 19 22 20 11 12 13 11 12 13 13 15 19 19 18 18 19 19 20 21 21 23 24 24 24 24 24
23 24 23 23 22 23 21 20 18 14 11 7 6 9 10 11 13 15 18 25 23 20 17 15 14 13 13 15 20 19 18 16 19 19 19 21 23 25 24 25 27 27 26
24 25 23 22 19 18 15 13 14 11 9 8 7 6 4 4 3 1 3 5 8 9 12 12 12 14 14 12 14 13 13 14 10 14 16 18 21 22 23 21 23 26 28
24 22 22 20 19 16 12 12 11 9 8 7 5 4 3 2 1 0 0 1 1 4 9 9 8 8 10 10 12 4 9 10 10 11 14 16 16 13 12 15 14 16 18
24 22 21 19 16 11 5 6 6 5 5 4 4 4 4 4 3 2 3 5 8 8 9 8 8 7 5 3 4 9 12 12 14 13 12 13 13 13 14 14 15 16 19
23 19 16 15 12 7 4 2 2 3 5 6 6 7 7 7 6 6 7 7 9 9 9 8 8 8 6 5 7 8 10 12 13 14 15 17 18 16 15 15 15 16 18
17 15 11 9 7 3 1 3 4 4 4 5 5 6 6 7 9 10 10 11 11 11 11 11 11 11 10 12 12 12 14 15 15 17 19 20 22 23 22 22 20 19 18
14 11 7 4 2 3 3 3 3 3 3 4 3 4 4 4 6 8 9 10 11 12 11 13 13 15 16 17 19 20 21 21 21 21 22 22 22 22 22 22 22 22 22
14 9 5 1 4 4 3 2 4 6 6 6 5 4 3 2 3 3 3 3 5 7 9 10 11 11 13 14 15 16 16 17 18 20 21 21 22 22 23 22 23 22 20

GFSMW_850_spd_102.txt.gz
Wind_Speed
20 18 16 15 16 16 16 17 16 16 14 12 12 10 9 9 9 8 9 8 6 6 6 5 5 6 5 5 3 3 4 3 2 2 3 4 5 5 5 4 4 2 3
21 20 19 17 17 18 18 17 16 18 15 13 13 10 10 9 8 8 7 6 6 6 4 7 4 7 3 4 4 5 4 4 4 3 3 4 5 4 3 3 3 3 3
23 22 21 20 18 19 20 19 17 16 15 15 12 10 9 10 8 8 6 6 7 6 6 8 7 5 6 3 4 3 5 4 5 6 2 3 3 3 2 2 1 3 2
22 23 23 22 21 19 18 18 18 17 15 17 12 11 10 10 8 7 7 6 8 7 6 8 8 7 5 5 3 2 5 7 4 5 6 8 5 1 5 2 0 2 1
26 25 24 23 22 20 19 18 17 18 15 18 14 10 10 8 7 7 7 7 7 7 7 9 10 9 4 6 6 3 6 4 5 4 3 5 5 7 1 3 1 1 0
27 27 25 23 21 20 19 18 18 20 20 19 15 12 11 9 8 7 5 6 5 7 7 7 9 9 6 6 6 6 5 5 4 3 4 3 3 4 3 1 1 0 2
28 27 25 23 22 23 21 19 18 20 21 18 16 14 11 9 6 7 8 6 5 4 5 8 7 5 9 8 8 7 6 4 4 3 1 2 2 3 3 2 2 2 3
32 26 26 25 24 24 22 20 19 19 20 18 16 15 13 9 7 6 7 6 6 5 8 6 6 6 8 7 8 6 6 6 4 5 5 2 2 3 3 3 5 7 4
32 26 24 24 25 24 24 22 19 18 17 18 15 15 13 13 10 6 9 6 6 9 7 7 7 6 7 7 8 6 7 9 7 6 7 5 6 5 5 6 6 7 12
33 30 26 24 21 25 24 21 18 16 15 16 15 15 12 12 14 11 10 9 7 9 10 7 6 7 7 7 7 7 9 8 7 7 9 9 7 8 8 9 10 10 10
34 32 31 23 21 22 22 29 17 14 14 15 15 15 14 12 11 11 11 9 9 8 8 8 7 4 7 8 8 8 9 8 7 7 7 7 9 8 9 11 11 11 12
28 26 34 31 28 26 23 22 24 14 11 15 16 17 15 13 12 12 13 11 10 10 9 8 7 5 6 6 7 6 7 8 7 7 7 8 7 9 8 8 10 10 11
22 26 23 26 29 30 30 32 26 27 20 13 16 17 19 17 15 14 14 15 13 11 9 9 9 9 7 6 6 7 7 7 7 7 8 8 8 9 9 9 8 9 9
18 22 23 22 22 24 31 33 32 36 28 22 17 12 14 17 16 15 15 15 16 15 12 12 10 10 11 10 9 8 7 7 8 8 8 9 9 10 10 10 12 10 12
17 18 18 18 20 22 22 32 27 20 25 20 21 18 18 18 16 13 14 14 14 16 15 12 10 10 9 9 12 11 10 8 8 9 9 9 12 12 12 13 13 12 11
15 16 15 16 18 20 22 25 26 22 21 22 22 22 21 16 12 14 13 14 13 13 15 13 12 11 11 16 14 14 11 9 8 8 7 8 11 9 14 15 15 15 16
11 13 15 16 17 18 21 24 26 21 17 17 16 17 16 19 19 15 14 12 11 11 12 10 11 14 15 14 15 15 13 12 9 9 8 7 13 14 15 16 16 17 18
14 14 16 17 20 20 21 21 23 20 20 18 15 14 15 16 21 21 16 11 9 8 6 7 7 8 8 8 11 12 15 15 14 14 14 13 16 17 16 16 17 18 15
13 12 13 13 15 16 15 17 18 20 21 17 18 16 15 18 15 11 15 16 13 12 14 14 13 9 8 6 5 6 8 11 12 11 11 8 8 5 9 15 16 15 13
14 15 15 16 14 14 17 22 27 25 25 21 15 14 17 15 15 16 18 19 15 19 18 17 15 12 8 9 6 4 3 6 5 5 5 5 7 8 8 9 10 14 14
15 16 16 18 18 19 21 22 23 22 21 19 16 14 14 13 12 11 11 15 15 12 10 12 11 9 8 7 6 6 5 4 3 3 3 5 5 7 8 10 11 12 13
21 23 24 22 20 18 14 18 17 17 16 15 14 13 13 12 12 12 12 13 14 13 11 9 9 9 9 7 5 4 3 3 4 5 6 6 6 8 11 12 13 13 13
23 21 20 19 16 14 11 9 10 11 11 12 12 12 12 12 12 11 11 12 12 10 10 9 7 7 4 4 5 5 4 5 8 9 9 11 14 14 13 15 15 11 8
19 17 14 13 12 9 5 3 4 7 8 9 9 10 10 11 11 9 9 7 7 7 7 6 6 9 10 9 9 9 11 12 14 15 16 16 14 13 9 7 8 7 8
14 11 11 10 8 6 4 2 1 3 3 4 5 6 7 9 13 13 13 14 13 12 8 9 10 6 9 12 13 14 15 14 13 11 8 6 6 6 3 5 5 6 7
12 9 8 6 8 8 7 6 3 1 2 2 2 4 5 6 6 9 11 11 11 12 13 13 12 12 11 9 8 7 5 4 3 2 1 3 3 3 5 7 7 8 10

GFSMW_850_spd_105.txt.gz
Wind_Speed
22 19 18 17 17 16 16 16 16 17 13 12 10 10 10 11 10 8 7 7 6 4 10 6 6 3 3 6 2 2 3 2 1 2 4 3 5 5 4 5 4 2 3
23 21 18 19 18 17 17 17 16 17 15 12 11 10 9 8 8 7 7 6 6 5 4 7 5 4 3 2 1 1 1 3 1 4 2 6 5 4 5 4 4 3 2
27 24 19 21 20 18 18 18 17 17 17 13 11 9 10 7 7 7 7 6 6 4 4 6 1 7 5 4 2 0 2 3 2 2 7 2 2 6 4 3 3 3 2
28 28 27 23 21 19 18 18 17 15 16 11 13 12 10 9 13 9 8 5 8 6 4 5 4 6 2 4 1 1 4 5 3 3 3 7 2 7 5 5 2 4 3
28 22 25 23 22 21 19 18 18 16 15 14 10 10 12 14 3 9 7 7 7 9 7 6 6 6 5 7 4 2 1 1 2 3 3 2 0 4 6 3 6 3 2
21 29 27 25 21 23 19 18 18 18 16 14 12 11 7 8 11 6 5 7 6 5 7 7 7 7 4 4 4 5 6 1 2 4 1 2 4 3 5 3 3 2 2
24 26 30 30 24 21 22 19 18 18 18 15 13 10 7 7 4 8 10 11 11 6 9 9 7 5 7 4 6 8 5 5 3 4 2 1 4 5 5 8 6 2 6
28 30 32 23 25 25 23 19 19 19 19 16 15 12 10 7 7 8 11 7 6 6 10 7 6 5 7 7 7 6 6 6 4 5 6 2 3 3 4 7 9 11 11
35 29 28 30 36 23 21 20 19 18 19 17 15 13 13 13 12 14 2 11 6 7 6 6 6 6 6 7 8 5 8 6 6 6 7 7 6 6 7 6 7 8 13
39 30 20 25 25 23 22 22 21 18 17 16 15 13 11 10 9 8 11 5 3 12 12 7 6 6 7 7 7 7 9 9 8 7 8 10 8 7 7 8 9 10 11
35 34 22 21 27 24 26 28 25 20 18 17 15 14 13 11 9 8 9 4 5 3 4 8 8 7 9 8 10 11 5 5 6 8 7 7 8 8 8 9 8 9 10
35 41 40 19 24 26 23 23 19 21 20 19 16 15 14 12 11 9 9 8 7 8 8 5 6 6 5 8 9 5 7 7 8 8 7 7 6 6 7 6 8 9 12
28 29 34 36 19 24 22 23 28 27 17 16 13 15 15 15 13 12 11 11 11 9 7 8 8 8 8 9 7 9 8 8 7 7 7 7 7 8 8 10 9 7 9
26 26 23 30 35 27 24 27 33 32 26 19 16 18 15 17 16 15 13 12 14 12 12 10 9 8 10 10 9 8 8 9 8 8 9 8 8 9 9 8 9 10 9
20 23 25 28 31 26 27 26 31 32 31 28 23 20 18 18 17 16 15 14 15 14 14 12 12 11 10 12 13 11 11 12 9 10 10 10 12 14 15 12 10 12 9
15 17 16 18 22 25 24 23 19 23 25 20 31 27 23 23 18 15 15 16 15 14 14 13 13 12 12 17 18 16 12 12 10 9 9 9 13 13 15 12 12 13 13
16 16 16 16 18 19 20 22 26 23 24 16 19 23 23 22 20 15 14 13 13 15 15 13 13 16 17 14 18 18 17 13 12 10 13 10 11 12 12 14 13 13 14
13 12 18 19 19 17 19 21 22 22 20 13 16 15 18 19 21 21 18 15 13 11 12 12 15 14 13 13 15 17 16 16 15 14 13 13 16 17 14 11 6 8 9
12 14 13 14 17 17 14 17 20 20 19 18 15 13 12 12 12 19 21 18 15 13 9 11 11 11 11 10 8 8 10 14 16 16 15 13 12 10 7 8 8 7 7
10 11 10 11 12 14 14 15 20 19 19 22 18 14 14 13 19 12 16 18 18 16 13 19 18 14 13 10 8 8 3 4 4 7 8 9 8 7 7 7 8 9 10
8 9 10 10 10 10 12 20 18 20 21 20 18 15 13 16 15 15 14 17 19 18 19 19 12 9 11 10 9 8 9 10 5 3 3 6 6 5 6 8 8 9 10
11 11 13 14 14 13 14 18 18 18 18 16 14 14 12 9 11 12 14 13 15 18 15 11 10 11 10 10 10 9 9 8 8 7 6 6 7 9 10 11 10 10 8
19 20 21 21 19 18 14 12 14 13 13 12 11 11 8 9 8 10 9 11 10 8 7 6 6 6 8 8 9 8 7 7 7 7 8 10 11 11 10 11 8 6 6
22 21 20 18 17 14 12 12 8 7 7 7 7 7 7 8 7 5 7 6 5 7 8 8 6 6 10 10 9 8 9 10 12 11 12 12 10 7 4 4 3 3 4
17 16 15 16 15 13 10 8 6 4 6 5 4 5 4 6 11 14 15 15 17 16 11 9 8 9 7 9 11 13 14 15 13 9 7 9 7 8 8 7 2 3 2
12 12 13 13 14 13 11 9 7 7 7 7 8 6 5 4 4 7 13 11 11 16 17 15 14 11 14 14 12 11 10 8 6 1 1 2 2 2 3 5 5 8 8

GFSMW_850_spd_108.txt.gz
Wind_Speed
22 19 21 20 20 18 17 14 18 15 17 19 18 10 16 7 9 8 3 5 3 5 7 8 5 6 5 6 11 3 5 4 1 2 5 5 8 10 7 5 12 2 6
23 22 22 22 19 20 19 19 20 19 15 13 10 11 10 12 9 7 7 7 6 7 2 3 6 5 4 4 6 3 7 1 5 6 2 7 10 9 8 6 10 5 5
20 24 23 23 23 23 21 21 19 20 20 9 13 10 11 12 11 6 8 8 6 5 4 6 5 3 2 4 7 1 5 5 5 4 7 7 2 9 7 7 9 8 10
30 28 24 24 26 25 23 22 20 20 20 12 14 18 9 10 13 7 8 10 7 6 3 6 1 5 3 5 3 2 2 4 4 2 8 7 2 6 7 10 13 9 9
22 29 27 29 26 25 26 25 21 17 18 23 15 14 13 13 15 9 11 12 11 11 5 5 6 5 1 4 6 4 4 1 5 6 3 3 2 9 11 11 2 9 6
28 31 24 29 32 30 27 25 21 21 19 17 18 15 9 14 7 10 9 10 2 7 9 7 7 7 6 3 6 8 7 3 2 1 3 13 13 13 20 5 10 13 4
13 25 32 32 36 30 30 28 23 21 22 15 16 10 12 10 7 6 11 8 11 9 8 10 9 7 8 4 6 5 6 6 6 3 2 4 8 7 16 13 18 13 10
26 29 26 32 22 34 26 28 24 18 21 19 15 13 10 7 3 2 9 10 10 7 11 7 5 6 6 7 6 6 1 3 4 8 8 3 2 7 13 15 12 12 9
43 37 23 36 28 25 30 25 25 20 20 20 17 14 12 14 12 8 4 4 22 13 13 6 7 3 6 5 5 4 8 8 6 5 6 10 12 11 7 8 11 14 15
42 32 26 32 26 35 32 32 25 18 21 20 17 14 14 15 9 5 7 3 12 4 10 11 6 6 6 5 5 7 8 8 9 5 9 11 15 13 8 10 9 10 14
44 37 31 13 39 33 33 27 26 19 22 23 20 16 11 8 11 10 5 3 6 3 3 8 10 9 8 7 10 10 6 6 4 11 8 8 12 10 13 11 10 11 14
36 36 33 14 27 20 30 35 36 26 24 19 22 19 14 15 11 9 6 5 6 6 6 5 9 8 8 9 8 7 7 8 7 8 8 9 5 8 6 5 7 9 10
27 33 34 30 28 29 16 38 26 30 25 23 23 22 18 16 15 13 8 12 10 9 6 7 8 8 7 7 10 6 9 5 6 6 8 8 8 11 7 10 12 9 11
25 25 26 18 23 30 29 38 27 26 33 28 27 26 21 17 15 15 13 11 13 14 12 12 9 6 6 7 9 9 7 11 6 6 8 10 8 12 10 9 12 9 14
26 25 24 24 22 23 36 19 23 26 31 32 28 22 18 19 18 17 17 16 14 13 11 12 10 11 10 14 14 12 11 9 8 10 8 9 13 12 13 15 16 14 13
24 25 25 25 28 34 32 29 24 31 28 26 23 21 22 29 20 22 21 21 18 14 12 12 10 13 14 15 14 14 13 11 9 11 11 10 11 13 11 9 9 10 13
12 16 15 18 23 28 28 26 22 26 32 31 25 22 17 24 21 22 18 18 18 20 15 14 17 18 15 14 14 16 16 17 16 12 12 11 13 13 12 11 12 9 9
9 13 13 13 14 16 21 22 22 24 19 18 18 14 16 16 18 18 15 15 15 16 16 18 15 13 13 14 16 16 15 17 17 15 12 15 16 14 14 13 8 9 8
11 11 15 12 15 18 18 18 19 17 18 16 13 11 10 13 18 20 19 18 16 17 17 15 14 10 8 8 10 7 7 13 17 17 15 16 15 14 11 9 9 8 8
3 4 5 10 12 12 12 17 17 18 17 14 14 12 11 10 7 8 10 16 16 16 18 14 14 9 11 11 9 9 11 5 5 3 7 9 9 7 7 8 6 6 6
5 5 7 8 8 8 9 12 14 18 18 17 18 15 12 12 11 13 10 13 15 16 15 14 14 14 16 12 11 10 10 10 6 4 8 3 3 3 5 6 7 8 7
8 9 10 9 8 7 8 14 15 16 19 19 18 16 13 9 12 13 12 12 12 15 14 13 13 11 10 9 10 11 13 13 14 14 10 8 5 6 8 8 8 6 6
14 14 16 18 17 15 10 12 14 15 17 17 17 15 13 11 10 12 11 9 10 11 9 9 8 7 8 7 8 8 8 9 10 9 9 9 8 8 7 4 3 6 8
21 19 19 19 20 18 16 16 12 12 10 10 12 13 16 11 13 11 11 12 13 10 5 4 3 6 7 7 6 7 7 9 9 10 11 12 12 11 9 9 9 10 9
19 19 20 20 18 14 11 10 11 10 6 7 7 9 11 8 11 10 10 11 9 12 13 13 13 10 8 8 8 10 12 13 12 10 10 9 8 8 10 11 9 7 5
15 16 17 18 17 15 14 11 8 10 8 12 10 8 6 4 2 9 12 10 12 15 15 15 16 12 15 14 15 14 12 10 7 4 2 4 3 3 2 2 2 5 2

GFSMW_850_spd_111.txt.gz
Wind_Speed
26 24 30 25 20 18 19 23 19 15 15 18 15 16 17 11 10 10 1 7 3 5 4 4 7 6 7 6 5 7 7 6 3 5 7 6 5 6 2 3 3 3 5
30 28 32 26 20 22 20 22 19 16 19 17 13 12 13 9 6 5 4 6 4 8 7 6 3 5 3 3 3 3 6 6 6 6 1 6 6 9 5 6 9 2 5
33 32 30 25 21 22 23 20 18 17 18 15 11 13 16 11 11 7 6 8 5 9 5 4 2 5 2 4 5 3 5 4 4 5 7 1 2 5 11 3 3 3 7
25 34 32 29 27 24 25 23 21 20 23 15 18 13 15 16 13 10 8 5 6 4 2 8 4 5 1 7 3 1 2 5 9 5 6 8 6 5 3 2 4 14 7
21 30 28 32 29 24 25 25 25 22 23 18 15 16 15 10 11 11 9 9 8 8 5 4 6 8 5 7 3 4 3 3 6 9 13 9 7 9 1 17 16 12 14
19 27 27 30 30 25 24 26 24 21 27 20 17 20 16 13 13 17 10 11 9 13 9 9 7 9 9 5 8 7 5 3 1 4 7 12 9 9 8 6 14 21 10
29 31 31 27 32 30 28 28 23 19 24 23 22 16 15 11 13 14 15 12 10 10 15 11 10 10 10 6 7 7 6 5 4 4 5 10 12 11 9 4 7 10 7
32 37 33 19 35 35 34 30 24 19 18 22 19 16 15 11 8 11 7 6 12 13 14 8 10 9 8 8 6 6 7 6 7 7 4 5 6 8 9 7 4 5 5
34 26 36 26 36 36 36 34 25 21 17 22 17 18 13 10 11 7 4 5 16 17 11 11 8 4 5 7 8 4 4 5 4 5 7 5 7 5 3 6 10 9 3
38 35 37 23 36 41 32 31 27 22 18 22 22 18 18 15 14 10 7 9 6 11 13 10 8 8 8 3 3 7 5 5 2 5 5 5 7 8 8 7 4 6 8
40 38 39 23 29 35 33 27 30 23 20 21 21 16 16 20 17 13 8 6 9 7 10 13 13 12 10 8 9 7 8 4 2 3 10 7 9 6 3 5 7 6 5
39 40 40 32 37 32 31 26 30 22 24 21 22 19 15 15 13 12 11 9 8 8 7 12 14 12 13 12 7 6 8 7 2 1 5 5 5 7 6 3 4 4 4
37 34 36 39 39 30 30 27 30 27 23 24 26 22 21 18 15 15 11 12 11 8 8 11 11 12 12 9 4 2 8 6 4 4 5 4 4 5 5 6 5 6 8
38 38 40 38 36 39 33 31 30 29 29 29 27 28 22 21 18 16 15 13 15 12 10 12 10 10 10 9 7 7 4 10 7 5 5 7 7 8 8 7 7 9 8
36 35 37 35 37 34 37 44 28 38 22 30 30 30 29 25 25 22 18 19 18 14 14 11 12 12 11 10 9 10 8 7 11 11 8 9 7 8 9 11 12 13 10
27 27 26 28 31 30 32 31 18 35 29 31 33 30 28 28 21 25 20 22 17 18 17 13 12 15 14 13 10 11 14 11 10 11 8 14 12 11 9 8 8 8 9
13 18 17 18 22 24 27 34 28 34 30 34 33 29 26 21 24 25 25 23 23 24 15 17 17 14 11 13 13 11 13 14 14 14 10 14 16 11 10 10 11 12 9
14 13 15 14 15 14 19 27 28 27 30 30 31 28 24 18 17 21 21 18 16 18 20 22 15 12 12 12 13 14 15 17 18 18 17 15 13 13 13 13 13 12 11
10 9 8 8 20 22 22 23 28 29 26 24 23 24 18 14 14 13 16 16 16 15 18 18 18 21 16 11 11 8 10 11 12 14 14 13 13 13 12 8 8 8 6
6 6 5 3 4 9 20 24 22 21 17 15 14 14 14 12 12 14 15 16 16 15 15 15 13 16 16 11 8 6 10 10 8 6 8 9 9 8 7 7 6 4 3
3 2 4 5 2 5 7 8 17 20 19 17 16 15 14 13 10 9 9 9 12 13 14 15 15 12 11 10 9 9 9 9 6 5 3 2 3 4 5 6 7 6 5
5 4 3 4 5 5 5 8 8 13 17 19 19 19 16 13 11 11 10 8 10 13 12 12 12 11 11 10 7 9 7 6 5 6 5 4 5 5 6 8 7 8 8
11 10 11 10 9 7 6 9 11 10 12 15 16 14 14 14 13 11 11 10 8 9 10 12 12 11 11 9 9 11 11 11 11 10 8 8 10 9 11 11 10 10 10
16 15 15 16 17 14 13 14 12 12 11 14 15 14 12 10 9 12 10 11 12 11 10 8 5 5 6 7 8 8 8 8 8 9 10 10 10 10 10 10 10 8 9
19 18 16 15 13 12 13 13 12 11 11 13 12 9 9 9 8 9 11 10 11 10 8 8 10 7 5 3 5 5 7 9 9 11 12 10 10 10 10 10 10 9 7
16 16 15 15 16 13 11 10 9 10 11 9 8 7 5 3 1 3 4 4 4 7 8 10 10 9 8 8 10 12 14 12 11 9 8 5 5 3 4 4 5 4 3

GFSMW_850_spd_114.txt.gz
Wind_Speed
35 34 34 32 25 20 21 16 19 23 23 21 18 18 14 11 9 7 4 7 11 5 6 4 6 4 3 2 6 5 7 5 4 5 3 8 5 3 2 5 5 6 9
35 38 36 32 25 23 20 20 20 24 22 18 14 14 14 10 9 8 7 5 4 7 5 10 7 8 3 2 4 5 6 7 6 3 4 4 4 8 8 10 11 7 10
38 38 38 32 24 23 23 24 23 19 18 20 15 13 13 13 11 10 6 8 5 7 4 7 4 6 4 4 3 5 6 6 1 3 3 3 3 6 8 4 5 3 7
37 39 38 32 27 22 25 22 22 18 21 21 17 14 15 13 10 10 10 12 7 4 4 4 3 7 3 4 3 4 7 6 8 4 3 1 3 2 6 6 7 2 6
39 40 41 33 27 22 25 25 23 19 22 19 16 15 16 16 13 13 12 12 11 9 6 1 7 4 4 6 6 3 2 5 8 8 8 6 3 3 3 10 9 7 10
33 40 40 33 29 23 23 26 26 22 23 23 17 19 14 15 13 11 12 12 13 14 11 9 7 6 9 6 7 6 2 1 4 4 6 6 8 6 4 3 10 7 3
33 37 39 37 33 29 26 23 26 25 26 26 19 18 18 16 13 12 14 13 15 14 17 12 11 7 7 8 5 8 8 6 3 1 3 8 7 6 6 6 7 7 7
32 34 35 39 36 33 29 24 23 27 24 27 24 20 18 15 12 15 14 15 15 12 13 15 11 7 8 10 9 8 7 6 5 4 1 1 3 6 7 7 6 5 4
35 34 32 36 37 38 33 26 23 25 23 26 25 23 19 16 15 15 11 12 9 11 12 16 9 8 9 8 8 7 10 7 6 5 6 3 2 2 2 1 5 2 0
37 33 35 32 35 36 36 29 24 24 21 22 26 23 22 18 16 14 11 9 7 12 15 14 12 11 8 3 7 9 9 7 6 7 6 4 5 2 4 4 6 5 3
40 39 39 43 32 35 38 35 29 28 25 21 24 23 22 21 19 15 11 8 8 9 11 15 14 14 12 9 10 7 10 8 7 4 7 8 7 8 7 4 7 8 7
42 44 38 37 35 35 36 39 33 31 27 24 22 24 22 22 20 19 15 12 9 10 8 15 15 14 11 12 11 10 11 12 8 7 4 3 7 9 6 6 7 8 7
35 38 42 34 35 34 42 39 37 33 32 25 23 24 23 22 22 19 17 14 12 12 10 11 14 14 13 14 12 10 9 11 11 7 5 3 2 2 2 4 6 4 6
38 41 44 39 39 38 43 40 36 35 34 25 26 27 25 23 18 17 15 13 10 10 11 9 10 11 15 15 13 11 6 10 9 8 10 9 7 5 5 6 7 8 8
17 34 36 43 43 43 43 40 39 39 36 27 27 29 28 24 24 21 22 20 19 15 10 10 13 13 13 14 15 13 9 8 10 13 11 11 9 10 8 7 9 9 7
15 15 32 39 42 41 41 37 37 33 29 29 32 32 28 27 24 27 22 24 24 23 19 16 15 16 15 16 12 13 13 12 9 12 14 13 10 8 9 8 7 6 7
28 4 18 31 37 42 42 41 40 36 36 30 36 32 29 29 28 25 25 20 26 22 22 21 17 15 17 17 14 13 12 13 13 11 11 11 10 12 10 11 11 11 10
7 4 14 19 26 29 34 35 33 33 26 34 31 31 27 28 30 25 23 25 25 25 26 23 22 17 20 16 14 14 15 14 14 15 15 14 13 12 11 12 11 10 9
10 7 8 7 6 23 23 27 31 31 30 30 27 25 26 32 25 21 22 22 23 21 20 20 18 21 22 17 16 11 12 12 12 13 14 13 12 12 11 11 10 7 6
5 5 8 5 2 10 12 19 22 25 24 25 21 19 23 26 18 16 14 12 14 15 14 15 16 18 20 21 16 14 10 12 10 9 10 12 12 11 10 9 8 7 6
7 7 7 6 4 5 14 11 14 23 24 24 24 25 19 17 15 14 14 13 14 14 14 15 15 13 14 16 14 12 12 13 12 8 6 6 7 9 8 6 6 6 6
5 6 7 8 9 7 6 9 11 13 12 14 14 13 13 13 13 12 12 10 10 12 15 14 12 12 10 10 10 9 8 9 8 8 7 5 4 5 5 4 4 4 5
8 8 9 12 12 10 7 6 6 8 13 19 18 16 16 16 16 12 12 10 12 13 13 13 11 10 10 9 10 11 11 9 8 8 8 8 8 8 8 7 7 7 9
8 9 11 12 13 11 8 9 9 6 6 11 11 13 14 16 18 18 17 16 16 15 15 15 14 10 6 7 9 9 9 9 9 9 10 9 9 10 11 10 9 10 11
13 9 11 13 15 12 11 11 10 8 9 11 12 11 10 9 5 8 12 12 14 15 14 13 11 8 4 6 7 7 7 7 8 10 11 11 10 10 11 10 9 9 9
14 15 16 13 12 11 10 10 10 9 7 8 8 6 6 6 6 3 1 3 5 6 7 9 12 8 7 7 6 6 9 11 12 13 13 11 9 8 8 8 7 5 6

GFSMW_850_spd_117.txt.gz
Wind_Speed
35 34 32 28 26 26 24 23 25 21 18 18 19 14 15 12 9 7 6 6 6 2 4 2 5 5 2 1 5 6 6 1 3 3 3 6 7 7 8 7 7 8 7
33 36 36 32 29 26 25 25 27 25 19 19 21 15 13 11 7 7 7 7 6 6 4 5 7 5 1 3 1 4 3 3 0 2 3 3 3 7 8 10 12 13 11
39 38 41 36 31 28 26 25 29 28 25 21 18 18 14 12 13 11 9 8 6 5 4 7 4 7 4 5 3 4 1 1 3 1 2 2 4 6 4 7 8 8 8
42 39 41 39 34 29 25 24 25 27 26 21 17 18 16 15 13 12 9 9 8 7 5 6 7 7 5 5 5 1 4 3 1 2 0 1 3 4 5 8 6 8 6
44 43 43 39 33 28 27 26 26 25 23 24 20 18 16 15 11 12 11 12 10 9 8 4 8 6 4 6 6 3 1 2 3 2 2 3 3 3 5 7 8 12 12
44 43 41 39 33 28 28 28 26 24 23 25 23 19 16 16 14 13 13 13 13 13 11 9 7 9 7 6 8 8 5 3 0 1 3 2 4 3 4 3 6 7 3
45 45 44 41 35 32 28 30 29 27 25 26 23 20 19 16 14 15 14 14 12 15 16 14 13 10 8 10 8 9 9 7 5 5 2 1 1 4 4 4 5 7 6
44 47 45 43 39 34 29 29 31 30 28 29 28 21 21 19 16 15 15 14 16 13 15 19 14 11 11 9 10 8 10 9 9 9 6 5 4 4 4 6 6 5 5
38 47 45 45 42 36 33 28 26 29 30 28 28 29 21 20 19 12 12 12 13 13 16 15 16 13 11 10 10 12 11 11 9 9 10 8 7 6 5 4 3 3 5
36 41 43 45 43 39 33 30 26 24 27 26 27 27 24 21 18 17 14 11 10 13 16 14 14 13 11 10 11 11 9 10 9 10 7 6 6 6 5 5 7 4 4
37 38 37 40 43 41 36 33 30 28 25 24 25 27 26 23 20 18 15 13 11 13 13 14 14 14 14 11 8 8 10 11 10 11 11 9 7 7 7 5 7 7 6
38 40 39 39 39 41 37 37 34 30 27 24 24 25 26 25 23 21 18 14 9 9 11 13 14 16 15 15 11 9 10 11 11 9 8 8 9 10 10 8 8 8 8
22 34 44 43 43 41 36 36 37 34 31 29 26 24 26 25 24 22 19 15 12 11 11 10 16 17 16 15 11 11 11 12 13 12 8 5 6 6 6 6 7 8 7
23 25 32 43 43 43 38 35 36 38 33 32 30 26 25 25 23 19 18 16 15 12 12 11 12 14 16 16 13 13 12 9 12 15 15 12 12 10 10 9 8 8 10
12 20 24 32 34 36 38 39 39 40 35 34 33 30 25 23 22 20 18 18 19 16 13 13 13 14 13 12 13 15 16 12 14 18 15 14 12 11 13 12 11 12 9
11 14 14 21 29 35 37 36 36 39 40 38 36 32 26 26 24 23 23 23 23 19 20 19 16 13 14 13 12 12 14 15 16 16 16 16 14 12 11 12 10 8 7
14 8 7 13 20 29 35 35 34 36 36 37 34 32 29 28 26 26 24 29 26 21 20 24 21 18 15 14 12 14 14 14 15 15 13 13 12 11 13 14 12 11 12
14 9 7 5 9 22 28 32 35 34 34 34 33 33 33 33 27 26 27 23 25 25 25 24 24 20 17 17 11 12 13 14 13 15 15 16 16 14 14 14 14 13 13
10 9 5 4 5 5 9 27 26 25 28 28 27 30 28 29 29 33 30 28 20 23 24 22 26 25 20 19 18 9 7 8 11 12 13 15 16 14 14 13 12 13 14
6 4 3 4 4 12 13 9 5 16 16 22 22 24 26 24 26 30 30 25 20 20 19 18 19 18 18 18 17 17 16 14 14 14 7 12 15 14 12 12 11 12 12
6 5 3 1 2 3 11 15 14 15 20 16 19 21 21 19 20 15 13 12 12 12 13 13 13 13 12 10 9 10 10 12 10 11 13 13 10 8 7 7 9 10 10
4 3 3 3 5 3 8 13 12 12 15 15 19 7 9 17 11 9 8 12 13 12 12 11 11 11 10 10 11 12 12 10 8 9 10 9 7 5 6 6 7 8 9
5 4 4 4 7 6 5 5 7 5 9 8 10 12 15 13 10 14 12 12 11 11 12 14 12 12 11 10 10 10 10 11 11 11 10 7 8 7 8 10 9 9 10
8 7 7 7 9 9 8 9 6 4 4 10 15 17 16 16 18 18 16 15 14 14 12 11 11 10 10 9 7 8 9 9 10 11 9 8 8 8 8 9 9 10 12
9 8 8 9 11 10 10 10 10 8 7 10 11 11 10 9 10 10 13 14 14 15 15 14 13 10 7 6 6 7 7 7 8 8 9 10 10 10 11 11 11 11 12
10 9 8 9 9 8 8 8 7 8 8 10 11 10 9 7 4 4 3 3 1 1 6 9 9 9 5 3 3 3 4 5 8 11 12 13 13 12 11 11 10 9 9

GFSMW_850_spd_123.txt.gz
Wind_Speed
19 17 18 19 19 20 21 21 18 16 16 18 16 13 10 10 10 9 9 8 6 6 6 5 6 4 3 4 4 6 6 4 4 5 4 2 4 4 4 4 5 7 10
18 20 21 22 23 21 22 21 19 17 16 19 17 14 12 11 9 7 6 9 7 4 5 5 5 4 2 1 1 1 2 2 2 3 3 2 4 7 8 8 8 9 9
23 22 24 25 24 25 23 22 20 19 17 19 17 15 14 13 11 10 7 8 7 5 5 5 6 5 3 2 3 3 2 1 1 1 2 2 2 5 7 8 9 9 10
24 24 25 27 28 26 24 23 21 20 19 18 19 18 16 14 12 9 9 9 9 7 6 7 5 5 4 5 5 2 2 2 2 2 2 3 3 1 4 6 8 9 10
26 26 28 30 29 27 25 24 23 22 22 19 16 17 15 14 12 11 10 8 9 8 9 5 7 7 6 6 6 6 3 2 1 1 3 4 4 3 3 4 7 7 5
27 27 28 26 29 29 26 25 25 23 24 23 19 16 16 15 12 12 11 10 9 9 9 8 7 9 7 7 8 8 6 5 3 2 2 2 2 3 4 4 6 5 5
29 27 25 26 32 32 28 25 25 23 26 28 24 20 15 16 14 14 11 11 10 11 11 11 12 10 10 10 9 8 9 9 8 7 5 4 4 4 4 5 5 5 2
30 29 30 33 34 33 31 28 26 23 23 25 26 22 20 17 15 16 14 14 13 14 13 13 13 12 11 11 11 12 10 10 10 10 10 8 8 7 6 6 5 5 3
32 33 30 32 36 34 33 30 26 26 25 25 26 24 22 20 17 15 15 13 13 15 16 17 15 15 16 13 12 12 14 12 10 11 11 11 12 11 10 9 7 5 6
27 32 34 30 36 34 32 30 28 25 26 28 27 25 23 22 18 16 17 17 14 15 16 16 16 15 15 16 14 14 14 15 13 12 11 9 9 10 10 9 9 10 8
28 35 37 37 37 36 35 33 29 27 26 27 27 26 25 24 23 22 17 16 17 15 13 14 15 17 15 18 17 13 14 15 14 12 11 10 10 12 10 9 9 10 10
27 36 39 38 38 40 37 36 32 30 27 23 24 25 25 23 24 24 23 20 17 16 15 14 15 17 19 17 18 15 13 13 13 13 14 12 11 11 12 11 11 9 10
25 30 31 35 39 41 41 38 35 32 29 27 24 24 24 25 24 24 24 21 19 19 16 14 13 15 17 18 18 15 15 15 15 15 16 14 12 11 10 9 9 7 9
18 25 29 30 33 37 40 38 37 35 35 31 29 28 26 25 21 21 23 23 21 21 19 17 15 15 15 17 17 17 17 17 17 16 16 16 15 13 12 10 10 9 10
6 13 19 22 23 28 33 35 36 37 37 34 33 32 30 28 28 25 22 22 24 24 22 21 19 17 15 14 16 17 18 20 18 17 12 13 16 14 12 11 11 12 11
3 4 16 16 21 25 22 25 30 32 33 35 33 34 33 34 33 31 27 24 25 26 25 24 21 19 18 15 14 16 17 18 19 18 17 18 17 16 14 13 12 10 9
9 3 8 13 16 16 17 22 27 29 30 32 31 28 27 27 32 34 32 28 27 25 24 22 22 21 20 18 15 15 17 17 16 17 18 17 16 13 14 14 13 13 12
8 8 5 9 11 12 14 17 16 18 22 24 23 20 22 27 24 27 31 31 27 28 25 24 22 24 23 25 19 19 18 15 15 15 15 17 17 14 13 14 14 13 13
5 4 4 1 6 11 14 13 11 13 13 17 24 23 23 26 29 32 35 34 29 26 27 23 21 22 22 24 24 21 18 12 10 13 14 13 14 15 15 17 17 15 14
5 3 2 2 2 7 8 7 3 9 12 20 17 15 15 12 22 23 21 24 21 26 25 20 14 13 16 16 22 34 29 22 16 10 7 9 9 9 8 9 12 14 12
6 6 6 6 5 2 2 8 9 11 9 9 8 9 8 9 10 9 8 12 19 30 26 20 16 11 13 9 19 20 24 19 22 19 21 23 19 18 18 16 16 15 14
7 8 9 10 8 6 3 7 9 4 5 4 5 5 4 4 5 8 6 6 9 13 14 13 8 9 8 8 5 8 10 23 21 15 14 14 14 15 16 14 13 11 11
9 9 10 12 12 12 10 6 2 1 2 2 2 6 3 6 2 4 5 7 8 7 10 8 5 6 5 6 6 7 8 11 13 15 15 14 12 12 10 9 9 9 7
9 9 9 10 12 13 13 14 10 7 4 2 3 1 2 7 3 7 6 6 10 10 9 7 7 8 12 11 11 12 11 11 11 13 12 12 11 11 10 8 7 9 12
11 11 10 12 14 13 14 14 15 13 11 11 9 5 3 3 4 6 6 6 5 6 8 10 10 10 9 7 8 8 8 9 8 7 6 7 9 8 7 6 6 8 10
10 10 11 12 13 13 13 14 14 13 12 11 11 11 11 12 11 9 8 8 7 6 4 3 2 1 1 2 4 5 4 4 2 1 2 5 7 7 6 6 7 8 9